Weather History for Chesapeake, VA

Change the Weather History Date:

Wednesday, October 10, 2012

  Actual Average (KORF) Record (KORF)
Temperature  
Mean Temperature 62 °F 64 °F  
Max Temperature 69 °F 72 °F 92 °F (1939)
Min Temperature 55 °F 56 °F 39 °F (1978)
Degree Days  
Heating Degree Days 3 3  
Month to date heating degree days 24  
Since 1 July heating degree days 35  
Cooling Degree Days 0 2  
Month to date cooling degree days 30  
Year to date cooling degree days 1595  
Growing Degree Days 12 (Base 50)    
Moisture  
Dew Point 56 °F    
Average Humidity 85    
Maximum Humidity 100    
Minimum Humidity 53    
Precipitation  
Precipitation 0.00 in 0.11 in 1.44 in (1959)
Month to date precipitation 1.13  
Year to date precipitation 37.83  
Snow  
Snow 0.00 in 0.00 in 0.00 in (2002)
Month to date snowfall 0.0  
Since 1 July snowfall 0.0  
Snow Depth -    
Sea Level Pressure  
Sea Level Pressure 30.01 in    
Wind  
Wind Speed 3 mph (WSW)    
Max Wind Speed 10 mph    
Max Gust Speed -    
Visibility 7 miles    
Events Fog    
T = Trace of Precipitation, MM = Missing Value Source: NWS Daily Summary

Daily Weather History Graph

Daily Weather History Graph

Search for Another Location

Airport:

Trip Planner

Search our weather history database for the weather conditions in past years. The results will help you decide how hot, cold, wet, or windy it might be!

Date:

Astronomy

Oct. 10, 2012 Rise Set
Actual Time 7:08 AM EDT 6:35 PM EDT
Civil Twilight 6:42 AM EDT 7:00 PM EDT
Nautical Twilight 6:12 AM EDT 7:30 PM EDT
Astronomical Twilight 5:42 AM EDT 8:00 PM EDT
Moon 1:50 AM EDT (10/10) 3:29 PM EDT (10/10)
Length of Visible Light 12h 18m
Length of Day
11h 26m
Waning Crescent, 27% of the Moon is Illuminated
Oct 10
Waning Crescent
Oct 15
New
Oct 21
First Quarter
Oct 29
Full
Nov 6
Last Quarter

Hourly Weather History & Observations

Time (EDT) Temp. Dew Point Humidity Pressure Visibility Wind Dir Wind Speed Gust Speed Precip Events Conditions
12:15 AM 60.8 °F 59.0 °F 94% 30.05 in 1.8 mi Calm Calm - N/A   Overcast
12:35 AM 60.8 °F 59.0 °F 94% 30.05 in 1.5 mi WNW 3.5 mph - N/A   Overcast
12:55 AM 60.8 °F 59.0 °F 94% 30.04 in 1.2 mi Calm Calm - N/A   Overcast
1:15 AM 60.8 °F 59.0 °F 94% 30.04 in 1.0 mi Calm Calm - N/A   Overcast
1:35 AM 60.8 °F 59.0 °F 94% 30.04 in 0.8 mi Calm Calm - N/A   Overcast
1:55 AM 60.8 °F 59.0 °F 94% 30.03 in 0.8 mi Calm Calm - N/A   Overcast
2:15 AM 60.8 °F 59.0 °F 94% 30.03 in 0.5 mi WNW 3.5 mph - N/A Fog Fog
2:35 AM 60.8 °F 59.0 °F 94% 30.03 in 0.5 mi WSW 3.5 mph - N/A Fog Fog
2:55 AM 59.0 °F 59.0 °F 100% 30.03 in 0.2 mi West 3.5 mph - N/A Fog Fog
3:15 AM 59.0 °F 59.0 °F 100% 30.02 in 0.2 mi Calm Calm - N/A Fog Fog
3:35 AM 59.0 °F 59.0 °F 100% 30.02 in 0.2 mi Calm Calm - N/A Fog Fog
3:55 AM 59.0 °F 59.0 °F 100% 30.01 in 0.2 mi Calm Calm - N/A Fog Fog
4:15 AM 59.0 °F 59.0 °F 100% 30.01 in 0.2 mi Calm Calm - N/A Fog Fog
4:35 AM 59.0 °F 59.0 °F 100% 30.01 in 0.5 mi Calm Calm - N/A Fog Fog
4:55 AM 59.0 °F 59.0 °F 100% 30.01 in 0.8 mi Calm Calm - N/A   Overcast
5:15 AM 59.0 °F 59.0 °F 100% 30.01 in 1.5 mi Calm Calm - N/A   Overcast
5:35 AM 59.0 °F 57.2 °F 94% 30.01 in 1.8 mi Calm Calm - N/A   Overcast
5:55 AM 59.0 °F 57.2 °F 94% 30.01 in 1.8 mi West 4.6 mph - N/A   Overcast
6:15 AM 59.0 °F 57.2 °F 94% 30.02 in 3.0 mi WSW 3.5 mph - N/A   Overcast
6:35 AM 57.2 °F 57.2 °F 100% 30.02 in 7.0 mi WSW 3.5 mph - N/A   Overcast
6:55 AM 57.2 °F 57.2 °F 100% 30.02 in 1.8 mi WSW 3.5 mph - N/A   Overcast
7:15 AM 57.2 °F 57.2 °F 100% 30.02 in 2.5 mi Calm Calm - N/A   Overcast
7:35 AM 57.2 °F 57.2 °F 100% 30.03 in 3.0 mi WSW 3.5 mph - N/A   Overcast
7:55 AM 57.2 °F 57.2 °F 100% 30.03 in 2.5 mi WSW 3.5 mph - N/A   Overcast
8:15 AM 57.2 °F 57.2 °F 100% 30.04 in 4.0 mi West 6.9 mph - N/A   Overcast
8:35 AM 57.2 °F 57.2 °F 100% 30.04 in 5.0 mi WSW 5.8 mph - N/A   Overcast
8:55 AM 59.0 °F 57.2 °F 94% 30.04 in 5.0 mi WSW 4.6 mph - N/A   Overcast
9:15 AM 59.0 °F 57.2 °F 94% 30.05 in 7.0 mi WSW 5.8 mph - N/A   Overcast
9:35 AM 59.0 °F 57.2 °F 94% 30.05 in 5.0 mi West 4.6 mph - N/A   Overcast
9:55 AM 60.8 °F 57.2 °F 88% 30.04 in 7.0 mi West 5.8 mph - N/A   Overcast
10:15 AM 60.8 °F 57.2 °F 88% 30.05 in 10.0 mi West 8.1 mph - N/A   Overcast
10:35 AM 60.8 °F 57.2 °F 88% 30.04 in 10.0 mi West 8.1 mph - N/A   Overcast
10:55 AM 60.8 °F 57.2 °F 88% 30.04 in 10.0 mi West 8.1 mph - N/A   Overcast
11:15 AM 62.6 °F 55.4 °F 77% 30.03 in 10.0 mi WNW 5.8 mph - N/A   Overcast
11:35 AM 62.6 °F 55.4 °F 77% 30.03 in 10.0 mi West 8.1 mph - N/A   Overcast
11:55 AM 62.6 °F 55.4 °F 77% 30.03 in 10.0 mi West 8.1 mph - N/A   Overcast
12:15 PM 62.6 °F 55.4 °F 77% 30.02 in 10.0 mi WSW 8.1 mph - N/A   Overcast
12:35 PM 62.6 °F 55.4 °F 77% 30.01 in 10.0 mi WSW 4.6 mph - N/A   Overcast
12:55 PM 64.4 °F 55.4 °F 73% 30.00 in 10.0 mi West 8.1 mph - N/A   Overcast
1:15 PM 66.2 °F 55.4 °F 68% 29.99 in 10.0 mi SW 8.1 mph - N/A   Overcast
1:35 PM 66.2 °F 55.4 °F 68% 29.98 in 10.0 mi WSW 6.9 mph - N/A   Overcast
1:55 PM 68.0 °F 55.4 °F 64% 29.97 in 10.0 mi WSW 10.4 mph - N/A   Overcast
2:15 PM 68.0 °F 53.6 °F 60% 29.95 in 10.0 mi WSW 5.8 mph - N/A   Scattered Clouds
2:35 PM 68.0 °F 53.6 °F 60% 29.95 in 10.0 mi SW 8.1 mph - N/A   Scattered Clouds
2:55 PM 69.8 °F 53.6 °F 56% 29.95 in 10.0 mi West 9.2 mph - N/A   Scattered Clouds
3:15 PM 69.8 °F 53.6 °F 56% 29.94 in 10.0 mi WSW 8.1 mph - N/A   Scattered Clouds
3:35 PM 69.8 °F 53.6 °F 56% 29.93 in 10.0 mi WSW 6.9 mph - N/A   Clear
3:55 PM 69.8 °F 53.6 °F 56% 29.93 in 10.0 mi WSW 8.1 mph - N/A   Clear
4:15 PM 69.8 °F 53.6 °F 56% 29.93 in 10.0 mi SW 6.9 mph - N/A   Clear
4:35 PM 69.8 °F 51.8 °F 53% 29.94 in 10.0 mi WSW 10.4 mph - N/A   Clear
4:55 PM 69.8 °F 53.6 °F 56% 29.94 in 10.0 mi WSW 6.9 mph - N/A   Clear
5:15 PM 69.8 °F 53.6 °F 56% 29.94 in 10.0 mi WSW 8.1 mph - N/A   Scattered Clouds
5:35 PM 69.8 °F 53.6 °F 56% 29.95 in 10.0 mi West 8.1 mph - N/A   Scattered Clouds
5:55 PM 66.2 °F 53.6 °F 64% 29.95 in 10.0 mi WSW 4.6 mph - N/A   Scattered Clouds
6:15 PM 66.2 °F 55.4 °F 68% 29.95 in 10.0 mi WSW 3.5 mph - N/A   Scattered Clouds
6:35 PM 62.6 °F 57.2 °F 82% 29.96 in 10.0 mi SSW 3.5 mph - N/A   Clear
6:55 PM 60.8 °F 55.4 °F 82% 29.97 in 10.0 mi Calm Calm - N/A   Clear
7:15 PM 59.0 °F 55.4 °F 88% 29.98 in 10.0 mi Calm Calm - N/A   Clear
7:55 PM 57.2 °F 55.4 °F 94% 29.99 in 10.0 mi Calm Calm - N/A   Clear
8:15 PM 57.2 °F 55.4 °F 94% 30.00 in 10.0 mi Calm Calm - N/A   Clear
8:35 PM 57.2 °F 55.4 °F 94% 30.01 in 10.0 mi Calm Calm - N/A   Clear
8:55 PM 55.4 °F 55.4 °F 100% 30.01 in 10.0 mi Calm Calm - N/A   Clear
9:15 PM 55.4 °F 53.6 °F 94% 30.01 in 10.0 mi Calm Calm - N/A   Clear
9:35 PM 55.4 °F 53.6 °F 94% 30.02 in 10.0 mi Calm Calm - N/A   Clear
9:55 PM 55.4 °F 53.6 °F 94% 30.03 in 10.0 mi Calm Calm - N/A   Clear
10:15 PM 55.4 °F 53.6 °F 94% 30.03 in 10.0 mi SW 3.5 mph - N/A   Clear
10:35 PM 55.4 °F 53.6 °F 94% 30.04 in 10.0 mi SW 3.5 mph - N/A   Clear
10:55 PM 55.4 °F 53.6 °F 94% 30.04 in 10.0 mi SW 3.5 mph - N/A   Clear
11:15 PM 55.4 °F 53.6 °F 94% 30.05 in 10.0 mi WSW 3.5 mph - N/A   Clear
11:55 PM 55.4 °F 53.6 °F 94% 30.06 in 10.0 mi SW 3.5 mph - N/A   Clear